Location: Wildlife_Club
(35.6000°N, 81.4330°W)
Time: 14:39:20
(UTC-04:00)

A-11 Canister half - Visible Passes

Search period start: 16 June 2019 00:00
Search period end: 26 June 2019 00:00
Orbit: 1525 x 1684 km, 47.3° (Epoch: 15 June)

Date Brightness Start Highest point End Pass type
(mag) Time Alt. Az. Time Alt. Az. Time Alt. Az.
16 Jun 10.6 04:48:14 10° S 04:55:02 22° SE 05:01:43 10° E visible
17 Jun 10.6 04:26:58 10° S 04:33:28 21° SE 04:39:52 10° E visible
18 Jun 10.6 04:05:45 10° SSE 04:11:55 19° SE 04:18:00 10° E visible
19 Jun 10.6 03:44:54 11° SSE 03:50:22 18° SE 03:56:06 10° E visible
20 Jun 10.6 03:24:34 12° SSE 03:28:49 17° SE 03:34:09 10° E visible
20 Jun 9.2 05:23:11 10° SW 05:32:36 67° SE 05:41:48 10° ENE visible
21 Jun 10.6 03:04:11 13° SE 03:07:16 15° ESE 03:12:08 10° E visible
21 Jun 9.2 05:02:29 13° SW 05:11:00 64° SE 05:20:10 10° ENE visible
22 Jun 10.6 02:43:46 13° SE 02:45:43 14° ESE 02:50:03 10° E visible
22 Jun 9.3 04:42:03 18° SSW 04:49:24 61° SE 04:58:32 10° ENE visible
23 Jun 10.7 02:23:17 13° SE 02:24:10 13° ESE 02:27:50 10° E visible
23 Jun 9.3 04:21:34 23° SSW 04:27:48 58° SE 04:36:53 10° ENE visible
24 Jun 10.8 02:02:46 12° ESE 02:02:46 12° ESE 02:05:25 10° ESE visible
24 Jun 9.3 04:01:03 28° SSW 04:06:12 55° SE 04:15:14 10° ENE visible
25 Jun 10.8 01:42:11 10° ESE 01:42:11 10° ESE 01:42:29 10° ESE visible
25 Jun 9.3 03:40:28 33° S 03:44:37 52° SE 03:53:35 10° ENE visible
25 Jun 9.4 05:40:09 10° WSW 05:49:34 62° NNW 05:58:48 10° NE visible
